iso_date,epoch_date,Year,Hour,Min,DOY,POS_DOY,Lat,Lon,BP,Ts,Ta,has_bp,has_ts,has_ta,BuoyID,Buoy_Type,Buoy_Owner,Logistics,Hemisphere
2014-03-16T15:59:02Z,1394985542,2014,15,59,75.666,-999.0,73.5017,-136.0887,1014.0,-999.00,-78.01,yes,no,yes,300234061620250,AWS,BAS,unknown,North
2014-03-16T16:59:31Z,1394989171,2014,16,59,75.708,-999.0,73.502,-136.1035,1014.0,-999.00,42.11,yes,no,yes,300234061620250,AWS,BAS,unknown,North
2014-03-16T18:00:00Z,1394992800,2014,18,0,75.75,-999.0,73.5018,-136.1192,1014.0,-999.00,-999.0,yes,no,yes,300234061620250,AWS,BAS,unknown,North
2014-03-16T18:59:02Z,1394996342,2014,18,59,75.791,-999.0,73.5016,-136.135,1014.0,-999.00,-999.0,yes,no,yes,300234061620250,AWS,BAS,unknown,North
2014-03-16T19:59:31Z,1394999971,2014,19,59,75.833,-999.0,73.5014,-136.1516,1015.0,-999.00,-999.0,yes,no,yes,300234061620250,AWS,BAS,unknown,North
2014-03-16T20:58:33Z,1395003514,2014,20,59,75.874,-999.0,73.501,-136.1683,1015.0,-999.00,-999.0,yes,no,yes,300234061620250,AWS,BAS,unknown,North
2014-03-16T22:00:28Z,1395007229,2014,22,0,75.917,-999.0,73.5003,-136.187,1015.0,-999.00,-999.0,yes,no,yes,300234061620250,AWS,BAS,unknown,North
2014-03-16T22:59:31Z,1395010771,2014,22,59,75.958,-999.0,73.4996,-136.2058,1015.0,-999.00,-999.0,yes,no,yes,300234061620250,AWS,BAS,unknown,North
2014-03-16T23:58:33Z,1395014314,2014,23,59,75.999,-999.0,73.4984,-136.2245,1015.0,-999.00,-999.0,yes,no,yes,300234061620250,AWS,BAS,unknown,North
2014-03-17T00:59:02Z,1395017942,2014,0,59,76.041,-999.0,73.4974,-136.2447,1015.0,-999.00,-999.0,yes,no,yes,300234061620250,AWS,BAS,unknown,North
2014-03-17T01:59:31Z,1395021571,2014,2,0,76.083,-999.0,73.4963,-136.2652,1015.0,-999.00,-999.0,yes,no,yes,300234061620250,AWS,BAS,unknown,North
2014-03-17T02:58:33Z,1395025114,2014,2,59,76.124,-999.0,73.4955,-136.2859,1015.0,-999.00,-999.0,yes,no,yes,300234061620250,AWS,BAS,unknown,North
2014-03-17T03:59:02Z,1395028742,2014,3,59,76.166,-999.0,73.4949,-136.3069,1015.0,-999.00,-999.0,yes,no,yes,300234061620250,AWS,BAS,unknown,North
2014-03-17T04:59:31Z,1395032371,2014,5,0,76.208,-999.0,73.4946,-136.3277,1016.0,-999.00,-999.0,yes,no,yes,300234061620250,AWS,BAS,unknown,North
2014-03-17T05:58:33Z,1395035914,2014,5,59,76.249,-999.0,73.4946,-136.3471,1015.0,-999.00,-999.0,yes,no,yes,300234061620250,AWS,BAS,unknown,North
2014-03-17T06:59:02Z,1395039542,2014,6,59,76.291,-999.0,73.4944,-136.3653,1016.0,-999.00,-999.0,yes,no,yes,300234061620250,AWS,BAS,unknown,North
2014-03-17T07:59:31Z,1395043171,2014,8,0,76.333,-999.0,73.4938,-136.3813,1016.0,-999.00,-999.0,yes,no,yes,300234061620250,AWS,BAS,unknown,North
2014-03-17T08:58:33Z,1395046714,2014,8,59,76.374,-999.0,73.493,-136.3967,1016.0,-999.00,-999.0,yes,no,yes,300234061620250,AWS,BAS,unknown,North
2014-03-17T09:59:02Z,1395050342,2014,9,59,76.416,-999.0,73.4921,-136.4131,1017.0,-999.00,-999.0,yes,no,yes,300234061620250,AWS,BAS,unknown,North
2014-03-17T10:59:31Z,1395053971,2014,10,59,76.458,-999.0,73.4908,-136.4294,1017.0,-999.00,-999.0,yes,no,yes,300234061620250,AWS,BAS,unknown,North
2014-03-17T12:00:00Z,1395057600,2014,12,0,76.5,-999.0,73.4897,-136.4467,1017.0,-999.00,-999.0,yes,no,yes,300234061620250,AWS,BAS,unknown,North
2014-03-17T12:59:02Z,1395061142,2014,12,59,76.541,-999.0,73.4886,-136.4647,1017.0,-999.00,-999.0,yes,no,yes,300234061620250,AWS,BAS,unknown,North
2014-03-17T13:59:31Z,1395064771,2014,13,59,76.583,-999.0,73.4876,-136.4833,1017.0,-999.00,-999.0,yes,no,yes,300234061620250,AWS,BAS,unknown,North
2014-03-17T14:58:33Z,1395068314,2014,14,59,76.624,-999.0,73.4869,-136.502,1018.0,-999.00,-999.0,yes,no,yes,300234061620250,AWS,BAS,unknown,North
2014-03-17T15:59:02Z,1395071942,2014,15,59,76.666,-999.0,73.4861,-136.5212,1018.0,-999.00,-999.0,yes,no,yes,300234061620250,AWS,BAS,unknown,North
2014-03-17T16:59:31Z,1395075571,2014,17,0,76.708,-999.0,73.4856,-136.541,1018.0,-999.00,-999.0,yes,no,yes,300234061620250,AWS,BAS,unknown,North
2014-03-17T17:58:33Z,1395079114,2014,17,59,76.749,-999.0,73.4851,-136.5607,1018.0,-999.00,-999.0,yes,no,yes,300234061620250,AWS,BAS,unknown,North
2014-03-17T18:59:02Z,1395082742,2014,18,59,76.791,-999.0,73.4846,-136.5803,1018.0,-999.00,-999.0,yes,no,yes,300234061620250,AWS,BAS,unknown,North
2014-03-17T19:59:31Z,1395086371,2014,19,59,76.833,-999.0,73.4841,-136.5999,1019.0,-999.00,-999.0,yes,no,yes,300234061620250,AWS,BAS,unknown,North
2014-03-17T21:00:00Z,1395090000,2014,21,0,76.875,-999.0,73.4834,-136.6201,1019.0,-999.00,-999.0,yes,no,yes,300234061620250,AWS,BAS,unknown,North
2014-03-17T21:59:02Z,1395093542,2014,21,59,76.916,-999.0,73.4829,-136.6402,1019.0,-999.00,-999.0,yes,no,yes,300234061620250,AWS,BAS,unknown,North
2014-03-17T22:59:31Z,1395097171,2014,22,59,76.958,-999.0,73.4825,-136.6617,1019.0,-999.00,-999.0,yes,no,yes,300234061620250,AWS,BAS,unknown,North
2014-03-18T00:00:00Z,1395100800,2014,0,0,77.0,-999.0,73.4823,-136.6843,1019.0,-999.00,-999.0,yes,no,yes,300234061620250,AWS,BAS,unknown,North
2014-03-18T00:59:02Z,1395104342,2014,0,59,77.041,-999.0,73.4824,-136.7056,1019.0,-999.00,-999.0,yes,no,yes,300234061620250,AWS,BAS,unknown,North
2014-03-18T01:59:31Z,1395107971,2014,1,59,77.083,-999.0,73.4826,-136.7268,1020.0,-999.00,-999.0,yes,no,yes,300234061620250,AWS,BAS,unknown,North
2014-03-18T02:58:33Z,1395111514,2014,2,59,77.124,-999.0,73.483,-136.746,1020.0,-999.00,-999.0,yes,no,yes,300234061620250,AWS,BAS,unknown,North
2014-03-18T04:00:28Z,1395115229,2014,4,0,77.167,-999.0,73.4831,-136.7701,1020.0,-999.00,-999.0,yes,no,yes,300234061620250,AWS,BAS,unknown,North
2014-03-18T04:59:31Z,1395118771,2014,4,59,77.208,-999.0,73.4833,-136.7909,1021.0,-999.00,-999.0,yes,no,yes,300234061620250,AWS,BAS,unknown,North
2014-03-18T06:00:00Z,1395122400,2014,6,0,77.25,-999.0,73.4836,-136.8119,1021.0,-999.00,-999.0,yes,no,yes,300234061620250,AWS,BAS,unknown,North
2014-03-18T06:59:02Z,1395125942,2014,6,59,77.291,-999.0,73.4837,-136.8312,1021.0,-999.00,-999.0,yes,no,yes,300234061620250,AWS,BAS,unknown,North
2014-03-18T07:59:31Z,1395129571,2014,7,59,77.333,-999.0,73.4837,-136.8492,1022.0,-999.00,-999.0,yes,no,yes,300234061620250,AWS,BAS,unknown,North
2014-03-18T09:00:00Z,1395133200,2014,9,0,77.375,-999.0,73.4837,-136.8676,1022.0,-999.00,-999.0,yes,no,yes,300234061620250,AWS,BAS,unknown,North
2014-03-18T09:59:02Z,1395136742,2014,9,59,77.416,-999.0,73.4836,-136.8858,1022.0,-999.00,-999.0,yes,no,yes,300234061620250,AWS,BAS,unknown,North
2014-03-18T10:59:31Z,1395140371,2014,10,59,77.458,-999.0,73.4836,-136.9049,1022.0,-999.00,-999.0,yes,no,yes,300234061620250,AWS,BAS,unknown,North
2014-03-18T12:00:00Z,1395144000,2014,12,0,77.5,-999.0,73.4839,-136.9247,1022.0,-999.00,-999.0,yes,no,yes,300234061620250,AWS,BAS,unknown,North
2014-03-18T12:59:02Z,1395147542,2014,12,59,77.541,-999.0,73.4843,-136.9439,1023.0,-999.00,-999.0,yes,no,yes,300234061620250,AWS,BAS,unknown,North
2014-03-18T13:59:31Z,1395151171,2014,13,59,77.583,-999.0,73.4848,-136.9628,1023.0,-999.00,-999.0,yes,no,yes,300234061620250,AWS,BAS,unknown,North
2014-03-18T14:58:33Z,1395154714,2014,14,59,77.624,-999.0,73.4852,-136.9815,1024.0,-999.00,-999.0,yes,no,yes,300234061620250,AWS,BAS,unknown,North
2014-03-18T16:00:28Z,1395158429,2014,16,0,77.667,-999.0,73.4859,-136.9994,1024.0,-999.00,-999.0,yes,no,yes,300234061620250,AWS,BAS,unknown,North
2014-03-18T16:59:31Z,1395161971,2014,16,59,77.708,-999.0,73.4863,-137.0165,1024.0,-999.00,-999.0,yes,no,yes,300234061620250,AWS,BAS,unknown,North
2014-03-18T17:58:33Z,1395165514,2014,17,59,77.749,-999.0,73.4869,-137.0333,1025.0,-999.00,-999.0,yes,no,yes,300234061620250,AWS,BAS,unknown,North
2014-03-18T19:00:28Z,1395169229,2014,19,0,77.792,-999.0,73.4873,-137.0502,1026.0,-999.00,-999.0,yes,no,yes,300234061620250,AWS,BAS,unknown,North
2014-03-18T19:59:31Z,1395172771,2014,19,59,77.833,-999.0,73.4877,-137.0673,1026.0,-999.00,-999.0,yes,no,yes,300234061620250,AWS,BAS,unknown,North
2014-03-18T20:58:33Z,1395176314,2014,20,59,77.874,-999.0,73.488,-137.0861,1026.0,-999.00,-999.0,yes,no,yes,300234061620250,AWS,BAS,unknown,North
2014-03-18T22:00:28Z,1395180029,2014,22,0,77.917,-999.0,73.4886,-137.1049,1026.0,-999.00,-999.0,yes,no,yes,300234061620250,AWS,BAS,unknown,North
2014-03-18T22:59:31Z,1395183571,2014,22,59,77.958,-999.0,73.4892,-137.1229,1026.0,-999.00,-999.0,yes,no,yes,300234061620250,AWS,BAS,unknown,North
2014-03-18T23:58:33Z,1395187114,2014,23,59,77.999,-999.0,73.4899,-137.14,1027.0,-999.00,-999.0,yes,no,yes,300234061620250,AWS,BAS,unknown,North
2014-03-19T00:59:02Z,1395190742,2014,0,59,78.041,-999.0,73.4911,-137.158,1027.0,-999.00,-999.0,yes,no,yes,300234061620250,AWS,BAS,unknown,North
2014-03-19T01:59:31Z,1395194371,2014,2,0,78.083,-999.0,73.4925,-137.174,1027.0,-999.00,-999.0,yes,no,yes,300234061620250,AWS,BAS,unknown,North
2014-03-19T02:58:33Z,1395197914,2014,2,59,78.124,-999.0,73.4936,-137.1881,1028.0,-999.00,-999.0,yes,no,yes,300234061620250,AWS,BAS,unknown,North
2014-03-19T03:59:02Z,1395201542,2014,3,59,78.166,-999.0,73.4946,-137.2004,1029.0,-999.00,-999.0,yes,no,yes,300234061620250,AWS,BAS,unknown,North
2014-03-19T04:59:31Z,1395205171,2014,5,0,78.208,-999.0,73.4956,-137.2125,1029.0,-999.00,-999.0,yes,no,yes,300234061620250,AWS,BAS,unknown,North
2014-03-19T05:58:33Z,1395208714,2014,5,59,78.249,-999.0,73.4963,-137.224,1029.0,-999.00,-999.0,yes,no,yes,300234061620250,AWS,BAS,unknown,North
2014-03-19T06:59:02Z,1395212342,2014,6,59,78.291,-999.0,73.4969,-137.235,1030.0,-999.00,-999.0,yes,no,yes,300234061620250,AWS,BAS,unknown,North
2014-03-19T07:59:31Z,1395215971,2014,7,59,78.333,-999.0,73.4976,-137.2453,1031.0,-999.00,-999.0,yes,no,yes,300234061620250,AWS,BAS,unknown,North
2014-03-19T09:00:00Z,1395219600,2014,9,0,78.375,-999.0,73.4983,-137.2556,1031.0,-999.00,-999.0,yes,no,yes,300234061620250,AWS,BAS,unknown,North
2014-03-19T09:59:02Z,1395223142,2014,9,59,78.416,-999.0,73.4989,-137.2649,1032.0,-999.00,-999.0,yes,no,yes,300234061620250,AWS,BAS,unknown,North
2014-03-19T10:59:31Z,1395226771,2014,10,59,78.458,-999.0,73.4995,-137.2735,1032.0,-999.00,-999.0,yes,no,yes,300234061620250,AWS,BAS,unknown,North
2014-03-19T12:00:00Z,1395230400,2014,12,0,78.5,-999.0,73.5001,-137.2819,1033.0,-999.00,-999.0,yes,no,yes,300234061620250,AWS,BAS,unknown,North
2014-03-19T12:59:02Z,1395233942,2014,12,59,78.541,-999.0,73.5006,-137.2895,1034.0,-999.00,-999.0,yes,no,yes,300234061620250,AWS,BAS,unknown,North
2014-03-19T13:59:31Z,1395237571,2014,13,59,78.583,-999.0,73.501,-137.2967,1034.0,-999.00,-999.0,yes,no,yes,300234061620250,AWS,BAS,unknown,North
2014-03-19T14:58:33Z,1395241114,2014,14,59,78.624,-999.0,73.5016,-137.303,1035.0,-999.00,-999.0,yes,no,yes,300234061620250,AWS,BAS,unknown,North
2014-03-19T16:00:28Z,1395244829,2014,16,0,78.667,-999.0,73.5021,-137.309,1035.0,-999.00,-999.0,yes,no,yes,300234061620250,AWS,BAS,unknown,North
2014-03-19T16:59:31Z,1395248371,2014,16,59,78.708,-999.0,73.5024,-137.3142,1036.0,-999.00,-999.0,yes,no,yes,300234061620250,AWS,BAS,unknown,North
2014-03-19T17:58:33Z,1395251914,2014,17,59,78.749,-999.0,73.5028,-137.3189,1036.0,-999.00,-999.0,yes,no,yes,300234061620250,AWS,BAS,unknown,North
2014-03-19T19:00:28Z,1395255629,2014,19,0,78.792,-999.0,73.5033,-137.3238,1037.0,-999.00,-999.0,yes,no,yes,300234061620250,AWS,BAS,unknown,North
2014-03-19T19:59:31Z,1395259171,2014,19,59,78.833,-999.0,73.5037,-137.3278,1038.0,-999.00,-999.0,yes,no,yes,300234061620250,AWS,BAS,unknown,North
2014-03-19T20:58:33Z,1395262714,2014,20,59,78.874,-999.0,73.5042,-137.3312,1038.0,-999.00,-999.0,yes,no,yes,300234061620250,AWS,BAS,unknown,North
2014-03-19T22:00:28Z,1395266429,2014,22,0,78.917,-999.0,73.5046,-137.3343,1038.0,-999.00,-999.0,yes,no,yes,300234061620250,AWS,BAS,unknown,North
2014-03-19T22:59:31Z,1395269971,2014,22,59,78.958,-999.0,73.5049,-137.3368,1039.0,-999.00,-999.0,yes,no,yes,300234061620250,AWS,BAS,unknown,North
2014-03-19T23:58:33Z,1395273514,2014,23,59,78.999,-999.0,73.505,-137.3377,1039.0,-999.00,-999.0,yes,no,yes,300234061620250,AWS,BAS,unknown,North
2014-03-20T01:00:28Z,1395277229,2014,1,0,79.042,-999.0,73.505,-137.3391,1040.0,-999.00,-999.0,yes,no,yes,300234061620250,AWS,BAS,unknown,North
2014-03-20T01:59:31Z,1395280771,2014,1,59,79.083,-999.0,73.5049,-137.3391,1040.0,-999.00,-999.0,yes,no,yes,300234061620250,AWS,BAS,unknown,North
2014-03-20T02:58:33Z,1395284314,2014,2,59,79.124,-999.0,73.5045,-137.3387,1041.0,-999.00,-999.0,yes,no,yes,300234061620250,AWS,BAS,unknown,North
2014-03-20T04:00:28Z,1395288029,2014,4,0,79.167,-999.0,73.5041,-137.3374,1041.0,-999.00,-999.0,yes,no,yes,300234061620250,AWS,BAS,unknown,North
2014-03-20T04:59:31Z,1395291571,2014,4,59,79.208,-999.0,73.5039,-137.3364,1042.0,-999.00,-999.0,yes,no,yes,300234061620250,AWS,BAS,unknown,North
2014-03-20T06:00:00Z,1395295200,2014,6,0,79.25,-999.0,73.5034,-137.3333,1042.0,-999.00,-999.0,yes,no,yes,300234061620250,AWS,BAS,unknown,North
2014-03-20T06:59:02Z,1395298742,2014,6,59,79.291,-999.0,73.5031,-137.3307,1042.0,-999.00,-999.0,yes,no,yes,300234061620250,AWS,BAS,unknown,North
2014-03-20T07:59:31Z,1395302371,2014,7,59,79.333,-999.0,73.5031,-137.328,1042.0,-999.00,-999.0,yes,no,yes,300234061620250,AWS,BAS,unknown,North
2014-03-20T09:00:00Z,1395306000,2014,9,0,79.375,-999.0,73.5025,-137.324,1042.0,-999.00,-999.0,yes,no,yes,300234061620250,AWS,BAS,unknown,North
2014-03-20T09:59:02Z,1395309542,2014,9,59,79.416,-999.0,73.502,-137.3196,1043.0,-999.00,-999.0,yes,no,yes,300234061620250,AWS,BAS,unknown,North
2014-03-20T10:59:31Z,1395313171,2014,10,59,79.458,-999.0,73.5015,-137.3148,1043.0,-999.00,-999.0,yes,no,yes,300234061620250,AWS,BAS,unknown,North
2014-03-20T12:00:00Z,1395316800,2014,12,0,79.5,-999.0,73.5012,-137.3098,1043.0,-999.00,-999.0,yes,no,yes,300234061620250,AWS,BAS,unknown,North
2014-03-20T12:59:02Z,1395320342,2014,12,59,79.541,-999.0,73.5008,-137.3049,1042.0,-999.00,-999.0,yes,no,yes,300234061620250,AWS,BAS,unknown,North
2014-03-20T13:59:31Z,1395323971,2014,13,59,79.583,-999.0,73.5007,-137.2997,1042.0,-999.00,-999.0,yes,no,yes,300234061620250,AWS,BAS,unknown,North
2014-03-20T14:58:33Z,1395327514,2014,14,59,79.624,-999.0,73.5006,-137.2942,1042.0,-999.00,-999.0,yes,no,yes,300234061620250,AWS,BAS,unknown,North
2014-03-20T16:00:28Z,1395331229,2014,16,0,79.667,-999.0,73.5008,-137.2878,1041.0,-999.00,-999.0,yes,no,yes,300234061620250,AWS,BAS,unknown,North
2014-03-20T16:59:31Z,1395334771,2014,16,59,79.708,-999.0,73.5013,-137.2798,1041.0,-999.00,-999.0,yes,no,yes,300234061620250,AWS,BAS,unknown,North
2014-03-20T17:58:33Z,1395338314,2014,17,59,79.749,-999.0,73.5022,-137.2694,1040.0,-999.00,-999.0,yes,no,yes,300234061620250,AWS,BAS,unknown,North
2014-03-20T18:59:02Z,1395341942,2014,18,59,79.791,-999.0,73.503,-137.256,1040.0,-999.00,-999.0,yes,no,yes,300234061620250,AWS,BAS,unknown,North
2014-03-20T19:59:31Z,1395345571,2014,20,0,79.833,-999.0,73.5043,-137.2399,1040.0,-999.00,-999.0,yes,no,yes,300234061620250,AWS,BAS,unknown,North
2014-03-20T20:58:33Z,1395349114,2014,20,59,79.874,-999.0,73.5052,-137.2231,1040.0,-999.00,-999.0,yes,no,yes,300234061620250,AWS,BAS,unknown,North
2014-03-20T21:59:02Z,1395352742,2014,21,59,79.916,-999.0,73.5058,-137.2054,1039.0,-999.00,-999.0,yes,no,yes,300234061620250,AWS,BAS,unknown,North
2014-03-20T22:59:31Z,1395356371,2014,22,59,79.958,-999.0,73.5059,-137.1852,1039.0,-999.00,-999.0,yes,no,yes,300234061620250,AWS,BAS,unknown,North
2014-03-21T00:00:00Z,1395360000,2014,0,0,80.0,-999.0,73.5053,-137.1652,1039.0,-999.00,-999.0,yes,no,yes,300234061620250,AWS,BAS,unknown,North
2014-03-21T00:59:02Z,1395363542,2014,0,59,80.041,-999.0,73.5043,-137.1463,1038.0,-999.00,-999.0,yes,no,yes,300234061620250,AWS,BAS,unknown,North
2014-03-21T01:59:31Z,1395367171,2014,1,59,80.083,-999.0,73.5031,-137.1294,1038.0,-999.00,-999.0,yes,no,yes,300234061620250,AWS,BAS,unknown,North
2014-03-21T03:00:00Z,1395370800,2014,3,0,80.125,-999.0,73.5017,-137.1155,1038.0,-999.00,-999.0,yes,no,yes,300234061620250,AWS,BAS,unknown,North
2014-03-21T03:59:02Z,1395374342,2014,3,59,80.166,-999.0,73.5002,-137.1041,1038.0,-999.00,-999.0,yes,no,yes,300234061620250,AWS,BAS,unknown,North
2014-03-21T04:59:31Z,1395377971,2014,4,59,80.208,-999.0,73.499,-137.0945,1038.0,-999.00,-999.0,yes,no,yes,300234061620250,AWS,BAS,unknown,North
2014-03-21T06:00:00Z,1395381600,2014,6,0,80.25,-999.0,73.4983,-137.0858,1038.0,-999.00,-999.0,yes,no,yes,300234061620250,AWS,BAS,unknown,North
2014-03-21T06:59:02Z,1395385142,2014,6,59,80.291,-999.0,73.498,-137.0782,1037.0,-999.00,-999.0,yes,no,yes,300234061620250,AWS,BAS,unknown,North
2014-03-21T07:59:31Z,1395388771,2014,7,59,80.333,-999.0,73.4979,-137.0708,1037.0,-999.00,-999.0,yes,no,yes,300234061620250,AWS,BAS,unknown,North
2014-03-21T08:58:33Z,1395392314,2014,8,59,80.374,-999.0,73.498,-137.0621,1037.0,-999.00,-999.0,yes,no,yes,300234061620250,AWS,BAS,unknown,North
2014-03-21T10:00:28Z,1395396029,2014,10,0,80.417,-999.0,73.4982,-137.054,1037.0,-999.00,-999.0,yes,no,yes,300234061620250,AWS,BAS,unknown,North
2014-03-21T10:59:31Z,1395399571,2014,10,59,80.458,-999.0,73.4984,-137.0428,1036.0,-999.00,-999.0,yes,no,yes,300234061620250,AWS,BAS,unknown,North
2014-03-21T11:58:33Z,1395403114,2014,11,59,80.499,-999.0,73.4985,-137.03,1036.0,-999.00,-999.0,yes,no,yes,300234061620250,AWS,BAS,unknown,North
2014-03-21T13:00:28Z,1395406829,2014,13,0,80.542,-999.0,73.4987,-137.0148,1035.0,-999.00,-999.0,yes,no,yes,300234061620250,AWS,BAS,unknown,North
2014-03-21T13:59:31Z,1395410371,2014,13,59,80.583,-999.0,73.4991,-136.9994,1034.0,-999.00,-999.0,yes,no,yes,300234061620250,AWS,BAS,unknown,North
2014-03-21T15:00:00Z,1395414000,2014,15,0,80.625,-999.0,73.4999,-136.9842,1033.0,-999.00,-999.0,yes,no,yes,300234061620250,AWS,BAS,unknown,North
2014-03-21T15:59:02Z,1395417542,2014,15,59,80.666,-999.0,73.5011,-136.9686,1032.0,-999.00,-999.0,yes,no,yes,300234061620250,AWS,BAS,unknown,North
2014-03-21T16:59:31Z,1395421171,2014,16,59,80.708,-999.0,73.5026,-136.9523,1031.0,-999.00,-999.0,yes,no,yes,300234061620250,AWS,BAS,unknown,North
2014-03-21T18:00:00Z,1395424800,2014,18,0,80.75,-999.0,73.5044,-136.9343,1030.0,-999.00,-999.0,yes,no,yes,300234061620250,AWS,BAS,unknown,North
2014-03-21T18:59:02Z,1395428342,2014,18,59,80.791,-999.0,73.5059,-136.9131,1029.0,-999.00,-999.0,yes,no,yes,300234061620250,AWS,BAS,unknown,North
2014-03-21T19:59:31Z,1395431971,2014,19,59,80.833,-999.0,73.5067,-136.8881,1028.0,-999.00,-999.0,yes,no,yes,300234061620250,AWS,BAS,unknown,North
2014-03-21T21:00:00Z,1395435600,2014,21,0,80.875,-999.0,73.5054,-136.8615,1028.0,-999.00,-999.0,yes,no,yes,300234061620250,AWS,BAS,unknown,North
2014-03-21T21:59:02Z,1395439142,2014,21,59,80.916,-999.0,73.5031,-136.837,1028.0,-999.00,-999.0,yes,no,yes,300234061620250,AWS,BAS,unknown,North
2014-03-21T22:59:31Z,1395442771,2014,22,59,80.958,-999.0,73.4995,-136.816,1027.0,-999.00,-999.0,yes,no,yes,300234061620250,AWS,BAS,unknown,North
2014-03-22T00:00:00Z,1395446400,2014,0,0,81.0,-999.0,73.4944,-136.7985,1028.0,-999.00,-999.0,yes,no,yes,300234061620250,AWS,BAS,unknown,North
2014-03-22T00:59:02Z,1395449942,2014,0,59,81.041,-999.0,73.4886,-136.7851,1028.0,-999.00,-999.0,yes,no,yes,300234061620250,AWS,BAS,unknown,North
2014-03-22T01:59:31Z,1395453571,2014,1,59,81.083,-999.0,73.4821,-136.7751,1028.0,-999.00,-999.0,yes,no,yes,300234061620250,AWS,BAS,unknown,North
2014-03-22T03:00:00Z,1395457200,2014,3,0,81.125,-999.0,73.4751,-136.7687,1028.0,-999.00,-999.0,yes,no,yes,300234061620250,AWS,BAS,unknown,North
2014-03-22T03:59:02Z,1395460742,2014,3,59,81.166,-999.0,73.4681,-136.7661,1029.0,-999.00,-999.0,yes,no,yes,300234061620250,AWS,BAS,unknown,North
2014-03-22T04:59:31Z,1395464371,2014,4,59,81.208,-999.0,73.4613,-136.765,1029.0,-999.00,-999.0,yes,no,yes,300234061620250,AWS,BAS,unknown,North
2014-03-22T06:00:00Z,1395468000,2014,6,0,81.25,-999.0,73.4551,-136.7669,1030.0,-999.00,-999.0,yes,no,yes,300234061620250,AWS,BAS,unknown,North
2014-03-22T06:59:02Z,1395471542,2014,6,59,81.291,-999.0,73.4501,-136.7728,1030.0,-999.00,-999.0,yes,no,yes,300234061620250,AWS,BAS,unknown,North
2014-03-22T07:59:31Z,1395475171,2014,7,59,81.333,-999.0,73.4461,-136.7803,1031.0,-999.00,-999.0,yes,no,yes,300234061620250,AWS,BAS,unknown,North
2014-03-22T08:58:33Z,1395478714,2014,8,59,81.374,-999.0,73.4433,-136.786,1032.0,-999.00,-999.0,yes,no,yes,300234061620250,AWS,BAS,unknown,North
2014-03-22T10:00:28Z,1395482429,2014,10,0,81.417,-999.0,73.4412,-136.7929,1033.0,-999.00,-999.0,yes,no,yes,300234061620250,AWS,BAS,unknown,North
2014-03-22T10:59:31Z,1395485971,2014,10,59,81.458,-999.0,73.4391,-136.7962,1033.0,-999.00,-999.0,yes,no,yes,300234061620250,AWS,BAS,unknown,North
2014-03-22T11:58:33Z,1395489514,2014,11,59,81.499,-999.0,73.4361,-136.7988,1034.0,-999.00,-999.0,yes,no,yes,300234061620250,AWS,BAS,unknown,North
2014-03-22T13:00:28Z,1395493229,2014,13,0,81.542,-999.0,73.4326,-136.8018,1034.0,-999.00,-999.0,yes,no,yes,300234061620250,AWS,BAS,unknown,North
2014-03-22T13:59:31Z,1395496771,2014,13,59,81.583,-999.0,73.429,-136.8072,1035.0,-999.00,-999.0,yes,no,yes,300234061620250,AWS,BAS,unknown,North
2014-03-22T14:58:33Z,1395500314,2014,14,59,81.624,-999.0,73.4258,-136.8153,1036.0,-999.00,-999.0,yes,no,yes,300234061620250,AWS,BAS,unknown,North
2014-03-22T16:00:28Z,1395504029,2014,16,0,81.667,-999.0,73.4231,-136.8251,1036.0,-999.00,-999.0,yes,no,yes,300234061620250,AWS,BAS,unknown,North
2014-03-22T16:59:31Z,1395507571,2014,16,59,81.708,-999.0,73.4213,-136.8333,1037.0,-999.00,-999.0,yes,no,yes,300234061620250,AWS,BAS,unknown,North
2014-03-22T17:58:33Z,1395511114,2014,17,59,81.749,-999.0,73.4197,-136.8398,1038.0,-999.00,-999.0,yes,no,yes,300234061620250,AWS,BAS,unknown,North
2014-03-22T18:59:02Z,1395514742,2014,18,59,81.791,-999.0,73.4186,-136.8455,1039.0,-999.00,-999.0,yes,no,yes,300234061620250,AWS,BAS,unknown,North
2014-03-22T19:59:31Z,1395518371,2014,20,0,81.833,-999.0,73.4173,-136.8488,1039.0,-999.00,-999.0,yes,no,yes,300234061620250,AWS,BAS,unknown,North
2014-03-22T20:58:33Z,1395521914,2014,20,59,81.874,-999.0,73.4165,-136.8504,1040.0,-999.00,-999.0,yes,no,yes,300234061620250,AWS,BAS,unknown,North
2014-03-22T21:59:02Z,1395525542,2014,21,59,81.916,-999.0,73.4158,-136.8509,1041.0,-999.00,-999.0,yes,no,yes,300234061620250,AWS,BAS,unknown,North
2014-03-22T22:59:31Z,1395529171,2014,22,59,81.958,-999.0,73.4148,-136.8507,1041.0,-999.00,-999.0,yes,no,yes,300234061620250,AWS,BAS,unknown,North
2014-03-23T00:00:00Z,1395532800,2014,0,0,82.0,-999.0,73.4133,-136.8511,1042.0,-999.00,-999.0,yes,no,yes,300234061620250,AWS,BAS,unknown,North
2014-03-23T00:59:02Z,1395536342,2014,0,59,82.041,-999.0,73.412,-136.8512,1042.0,-999.00,-999.0,yes,no,yes,300234061620250,AWS,BAS,unknown,North
2014-03-23T01:59:31Z,1395539971,2014,1,59,82.083,-999.0,73.4107,-136.8512,1042.0,-999.00,-999.0,yes,no,yes,300234061620250,AWS,BAS,unknown,North
2014-03-23T03:00:00Z,1395543600,2014,3,0,82.125,-999.0,73.4096,-136.8528,1043.0,-999.00,-999.0,yes,no,yes,300234061620250,AWS,BAS,unknown,North
2014-03-23T03:59:02Z,1395547142,2014,3,59,82.166,-999.0,73.4088,-136.8545,1043.0,-999.00,-999.0,yes,no,yes,300234061620250,AWS,BAS,unknown,North
2014-03-23T04:59:31Z,1395550771,2014,4,59,82.208,-999.0,73.4082,-136.8558,1043.0,-999.00,-999.0,yes,no,yes,300234061620250,AWS,BAS,unknown,North
2014-03-23T06:00:00Z,1395554400,2014,6,0,82.25,-999.0,73.4079,-136.8562,1043.0,-999.00,-999.0,yes,no,yes,300234061620250,AWS,BAS,unknown,North
2014-03-23T06:59:02Z,1395557942,2014,6,59,82.291,-999.0,73.4078,-136.8561,1043.0,-999.00,-999.0,yes,no,yes,300234061620250,AWS,BAS,unknown,North
2014-03-23T07:59:31Z,1395561571,2014,7,59,82.333,-999.0,73.4079,-136.8546,1043.0,-999.00,-999.0,yes,no,yes,300234061620250,AWS,BAS,unknown,North
2014-03-23T08:58:33Z,1395565114,2014,8,59,82.374,-999.0,73.4081,-136.851,1043.0,-999.00,-999.0,yes,no,yes,300234061620250,AWS,BAS,unknown,North
2014-03-23T10:00:28Z,1395568829,2014,10,0,82.417,-999.0,73.4087,-136.8487,1043.0,-999.00,-999.0,yes,no,yes,300234061620250,AWS,BAS,unknown,North
2014-03-23T10:59:31Z,1395572371,2014,10,59,82.458,-999.0,73.4092,-136.8442,1043.0,-999.00,-999.0,yes,no,yes,300234061620250,AWS,BAS,unknown,North